Weather History for Blackpool, United Kingdom

Change the Weather History Date:

Wednesday, June 5, 2013

  Actual Average Record
Temperature  
Mean Temperature 55 °F -  
Max Temperature 64 °F 62 °F 71 °F (1997)
Min Temperature 46 °F 52 °F 42 °F (2012)
Degree Days  
Heating Degree Days 10    
Growing Degree Days 5 (Base 50)    
Moisture  
Dew Point 49 °F    
Average Humidity 72    
Maximum Humidity 93    
Minimum Humidity 56    
Precipitation  
Precipitation 0.00 in - - ()
Sea Level Pressure  
Sea Level Pressure 30.18 in    
Wind  
Wind Speed 7 mph ()    
Max Wind Speed 12 mph    
Max Gust Speed -    
Visibility 6.2 miles    
Events      
Averages and records for this station are not official NWS values.
T = Trace of Precipitation, MM = Missing Value Source: Averaged Metar Reports

Daily Weather History Graph

Daily Weather History Graph

Search for Another Location

Airport:

Trip Planner

Search our weather history database for the weather conditions in past years. The results will help you decide how hot, cold, wet, or windy it might be!

Date:

Astronomy

Jun. 05, 2013 Rise Set
Actual Time 4:44 AM BST 9:37 PM BST
Civil Twilight 3:53 AM BST 10:28 PM BST
Nautical Twilight 2:25 AM BST 11:58 PM BST
Astronomical Twilight Sun does not rise Sun does not rise
Moon 3:07 AM BST (6/5) 6:28 PM BST (6/5)
Length of Visible Light 18h 35m
Length of Day
16h 52m
Waning Crescent, 9% of the Moon is Illuminated
Jun 5
Waning Crescent
Jun 8
New
Jun 16
First Quarter
Jun 23
Full
Jun 30
Last Quarter

Hourly Weather History & Observations

Time (BST) Temp. Dew Point Humidity Pressure Visibility Wind Dir Wind Speed Gust Speed Precip Events Conditions
12:50 AM 53 °F 46 °F 71%  in - East 9.2 mph - -  
3:50 AM 48 °F 45 °F 86%  in - ENE 8.1 mph - -  
5:50 AM 48.2 °F 46.4 °F 93% 30.24 in - East 6.9 mph - N/A   Clear
6:20 AM 50.0 °F 46.4 °F 87% 30.24 in - East 6.9 mph - N/A   Clear
6:50 AM 51 °F 47 °F 82%  in - East 8.1 mph - -  
6:50 AM 51.8 °F 48.2 °F 88% 30.24 in - East 5.8 mph - N/A   Clear
7:20 AM 51.8 °F 48.2 °F 88% 30.24 in - East 8.1 mph - N/A   Clear
7:50 AM 53.6 °F 48.2 °F 82% 30.24 in 6.2 mi ESE 10.4 mph - N/A   Partly Cloudy
8:20 AM 55.4 °F 48.2 °F 77% 30.24 in 6.2 mi ESE 8.1 mph - N/A   Partly Cloudy
8:50 AM 55.4 °F 48.2 °F 77% 30.24 in 6.2 mi ESE 10.4 mph - N/A   Partly Cloudy
9:20 AM 57.2 °F 50.0 °F 77% 30.24 in 6.2 mi ESE 5.8 mph - N/A   Partly Cloudy
9:50 AM 58 °F 48 °F 62%  in - East 5.8 mph - -  
9:50 AM 59.0 °F 50.0 °F 72% 30.21 in 6.2 mi ESE 5.8 mph - N/A   Partly Cloudy
10:20 AM 60.8 °F 50.0 °F 68% 30.21 in 6.2 mi East 2.3 mph - N/A   Partly Cloudy
10:50 AM 60.8 °F 50.0 °F 68% 30.21 in 6.2 mi ENE 6.9 mph - N/A   Partly Cloudy
11:20 AM 62.6 °F 50.0 °F 63% 30.21 in 6.2 mi East 9.2 mph - N/A   Scattered Clouds
11:50 AM 62.6 °F 50.0 °F 63% 30.18 in 6.2 mi ENE 5.8 mph - N/A   Partly Cloudy
12:20 PM 59.0 °F 50.0 °F 72% 30.18 in 6.2 mi WNW 10.4 mph - N/A   Partly Cloudy
12:50 PM 58 °F 50 °F 66%  in - NW 8.1 mph - -  
12:50 PM 59.0 °F 50.0 °F 72% 30.18 in 6.2 mi NNW 8.1 mph - N/A   Partly Cloudy
1:20 PM 59.0 °F 51.8 °F 77% 30.18 in 6.2 mi NW 9.2 mph - N/A   Partly Cloudy
1:50 PM 59.0 °F 50.0 °F 72% 30.18 in 6.2 mi NW 11.5 mph - N/A   Scattered Clouds
2:20 PM 59.0 °F 50.0 °F 72% 30.18 in 6.2 mi NW 11.5 mph - N/A   Scattered Clouds
2:50 PM 57.2 °F 50.0 °F 77% 30.18 in 6.2 mi NW 11.5 mph - N/A   Scattered Clouds
3:20 PM 59.0 °F 50.0 °F 72% 30.15 in 6.2 mi NNW 11.5 mph - N/A   Scattered Clouds
3:50 PM 59 °F 50 °F 63%  in - North 10.4 mph - -  
3:50 PM 59.0 °F 50.0 °F 72% 30.15 in 6.2 mi North 11.5 mph - N/A   Scattered Clouds
4:20 PM 60.8 °F 50.0 °F 68% 30.15 in 6.2 mi NNW 11.5 mph - N/A   Partly Cloudy
4:50 PM 60.8 °F 50.0 °F 68% 30.15 in 6.2 mi NNW 10.4 mph - N/A   Partly Cloudy
5:20 PM 62.6 °F 50.0 °F 63% 30.15 in 6.2 mi NNW 6.9 mph - N/A   Partly Cloudy
5:50 PM 62.6 °F 51.8 °F 68% 30.15 in 6.2 mi NW 8.1 mph - N/A   Partly Cloudy
6:20 PM 60.8 °F 50.0 °F 68% 30.15 in 6.2 mi NNW 8.1 mph - N/A   Partly Cloudy
6:50 PM 63 °F 51 °F 56%  in - NNW 6.9 mph - -  
6:50 PM 62.6 °F 50.0 °F 63% 30.15 in 6.2 mi NW 9.2 mph - N/A   Partly Cloudy
7:20 PM 62.6 °F 50.0 °F 63% 30.12 in 6.2 mi NW 9.2 mph - N/A   Partly Cloudy
7:50 PM 64.4 °F 50.0 °F 59% 30.12 in 6.2 mi North 5.8 mph - N/A   Partly Cloudy
8:20 PM 62.6 °F 50.0 °F 63% 30.12 in 6.2 mi West 8.1 mph - N/A   Partly Cloudy
8:50 PM 60.8 °F 51.8 °F 72% 30.15 in 6.2 mi WNW 4.6 mph - N/A   Partly Cloudy
9:50 PM 57 °F 51 °F 73%  in - SW 1.2 mph - -